www.pogodaiklimat.ru

Погода и климат >> Архив погоды >> Бразилия >> Пара >> Салинополис


ПОГОДА в Салинополисе

  • Прогноз погоды в Салинополисе
  • Монитор погоды в Салинополисе

АРХИВ ПОГОДЫ в Салинополисе

Время (UTC), дата Ветер
(напр.,м/с)
 
Видим.   Явления Облачность Т
(С)
Тd
(С)
f
(%)
Тe
(С)
Тes
(С)
Комфортность P
(гПа)
Po
(гПа)
Тmin
(С)
Tmax
(С)
R
(мм)
R24
(мм)
S
(см)
22 19.06 В 1
{3}
н/о н/о +27.6 +23.3 77 +37 +37 очень
душно
1013.3 1010.6
23 19.06 В 1
{4}
н/о н/о +27.6 +23.3 77 +37 +37 очень
душно
1013.8 1011.1
00 20.06 В 1
{4}
н/о н/о +27.3 +23.1 78 +37 +37 очень
душно
1014.2 1011.5
01 20.06 В 1
{3}
н/о н/о +27.1 +23.2 79 +36 +36 очень
душно
1014.4 1011.7
02 20.06 В 1
{3}
н/о н/о +26.8 +23.0 80 +36 +36 очень
душно
1014.5 1011.8
03 20.06 штиль 0
{3}
н/о н/о +25.0 +22.7 87 +33 +33 очень
душно
1014.2 1011.5
04 20.06 штиль 0 н/о н/о +24.0 +22.4 91 +31 +31 очень
душно
1013.8 1011.1
05 20.06 штиль 0 н/о н/о +23.9 +22.5 92 +31 +31 очень
душно
1013.3 1010.6
06 20.06 штиль 0 н/о н/о +23.6 +22.3 92 +31 +31 очень
душно
1013.0 1010.3
07 20.06 штиль 0 н/о н/о +23.5 +22.3 93 +31 +31 очень
душно
1013.0 1010.3
08 20.06 штиль 0 н/о н/о +23.6 +22.5 94 +31 +31 очень
душно
1013.3 1010.6
09 20.06 штиль 0 н/о н/о +24.1 +22.9 93 +32 +32 очень
душно
1013.5 1010.8
10 20.06 штиль 0 н/о н/о +25.4 +24.0 92 +35 +35 очень
душно
1014.1 1011.4
11 20.06 штиль 0
{1}
н/о н/о +27.8 +24.5 82 +39 +39 очень
душно
1014.8 1012.1
12 20.06 В 1
{3}
н/о н/о +29.0 +24.3 76 +41 +41 опасность
перегрева
1014.9 1012.2
13 20.06 СВ 1
{3}
н/о н/о +29.3 +23.4 71 +40 +40 очень
душно
1015.0 1012.3
14 20.06 В 1
{3}
н/о н/о +30.1 +23.9 69 +41 +41 опасность
перегрева
1014.5 1011.9
15 20.06 СВ 1
{3}
н/о н/о +29.9 +23.9 70 +41 +41 опасность
перегрева
1014.1 1011.5
16 20.06 штиль 0
{4}
н/о н/о +30.6 +24.1 68 +42 +42 опасность
перегрева
1013.3 1010.7
17 20.06 СВ 1
{4}
н/о н/о +29.9 +24.1 71 +41 +41 опасность
перегрева
1012.8 1010.2
18 20.06 СВ 1
{4}
н/о н/о +29.6 +24.2 73 +41 +41 опасность
перегрева
1012.2 1009.6
19 20.06 СВ 1
{3}
н/о н/о +29.2 +24.1 74 +41 +41 опасность
перегрева
1012.0 1009.4
20 20.06 СВ 1
{4}
н/о н/о +28.7 +24.0 76 +40 +40 очень
душно
1012.8 1010.1
21 20.06 штиль 0
{5}
н/о н/о +25.4 +21.0 77 +32 +32 очень
душно
1013.0 1010.3
22 20.06 штиль 0 н/о н/о +24.4 +21.3 83 +31 +31 очень
душно
1013.1 1010.4
23 20.06 штиль 0 н/о н/о +24.0 +21.5 86 +31 +31 очень
душно
1013.8 1011.1
00 21.06 штиль 0 н/о н/о +23.9 +21.8 88 +31 +31 очень
душно
1014.1 1011.4
01 21.06 штиль 0 н/о н/о +24.0 +21.8 88 +31 +31 очень
душно
1014.7 1012.0
02 21.06 штиль 0 н/о н/о +23.8 +21.8 89 +31 +31 очень
душно
1015.0 1012.3
03 21.06 штиль 0 н/о н/о +24.8 +22.9 89 +33 +33 очень
душно
1014.8 1012.1
04 21.06 штиль 0
{2}
н/о н/о +26.5 +23.8 85 +36 +36 очень
душно
1014.3 1011.6
05 21.06 штиль 0
{2}
н/о н/о +26.5 +23.7 85 +36 +36 очень
душно
1013.9 1011.2
06 21.06 штиль 0
{2}
н/о н/о +26.0 +23.5 86 +35 +35 очень
душно
1013.5 1010.8
07 21.06 штиль 0
{4}
н/о н/о +24.0 +21.4 85 +30 +30 очень
душно
1013.2 1010.5
08 21.06 штиль 0
{2}
н/о н/о +24.0 +21.7 87 +31 +31 очень
душно
1013.6 1010.9
09 21.06 штиль 0 н/о н/о +24.2 +21.7 86 +31 +31 очень
душно
1013.7 1011.0
10 21.06 штиль 0
{2}
н/о н/о +26.6 +23.8 85 +37 +37 очень
душно
1014.2 1011.5
11 21.06 В 1
{5}
н/о н/о +28.4 +24.3 78 +40 +40 очень
душно
1014.6 1011.9
12 21.06 В 3
{5}
н/о н/о +29.1 +23.3 71 +39 +39 очень
душно
1014.9 1012.2
13 21.06 В 2
{5}
н/о н/о +29.5 +23.3 69 +40 +40 очень
душно
1015.0 1012.3
14 21.06 В 1
{6}
н/о н/о +30.1 +23.8 69 +41 +41 опасность
перегрева
1015.0 1012.4
15 21.06 В 2
{5}
н/о н/о +29.9 +23.5 69 +41 +41 опасность
перегрева
1014.8 1012.2
16 21.06 В 3
{5}
н/о н/о +30.0 +23.0 66 +40 +40 очень
душно
1014.2 1011.6
17 21.06 В 3
{5}
н/о н/о +29.8 +23.5 69 +40 +40 очень
душно
1013.5 1010.9
18 21.06 В 2
{5}
н/о н/о +29.8 +23.2 68 +40 +40 очень
душно
1012.8 1010.2
19 21.06 В 2
{5}
н/о н/о +29.7 +23.9 71 +41 +41 опасность
перегрева
1012.8 1010.2
20 21.06 В 2
{5}
н/о н/о +29.0 +23.5 72 +39 +39 очень
душно
1013.0 1010.3
21 21.06 В 2
{5}
н/о н/о +28.3 +23.3 74 +38 +38 очень
душно
1013.7 1011.0
22 21.06 В 1
{4}
н/о н/о +28.0 +23.5 77 +38 +38 очень
душно
1014.2 1011.5
23 21.06 В 2
{4}
н/о н/о +28.1 +23.3 75 +38 +38 очень
душно
1014.5 1011.8
00 22.06 штиль 0
{4}
н/о н/о +24.0 +21.8 88 +31 +31 очень
душно
1015.3 1012.6 0.8
01 22.06 штиль 0 н/о н/о +24.5 +22.9 91 +32 +32 очень
душно
1015.7 1013.0
02 22.06 штиль 0 н/о н/о +24.7 +23.3 92 +33 +33 очень
душно
1016.3 1013.6
03 22.06 штиль 0 н/о н/о +24.9 +23.5 92 +34 +34 очень
душно
1016.1 1013.4
04 22.06 штиль 0
{1}
н/о н/о +25.0 +23.6 92 +34 +34 очень
душно
1015.7 1013.0
05 22.06 штиль 0
{1}
н/о н/о +24.6 +23.0 91 +33 +33 очень
душно
1015.0 1012.3
06 22.06 штиль 0 н/о н/о +24.1 +22.8 92 +32 +32 очень
душно
1014.7 1012.0
07 22.06 штиль 0 н/о н/о +23.9 +22.7 93 +31 +31 очень
душно
1014.5 1011.8
08 22.06 штиль 0 н/о н/о +23.7 +22.6 94 +31 +31 очень
душно
1014.8 1012.1
09 22.06 штиль 0 н/о н/о +24.0 +22.9 94 +32 +32 очень
душно
1015.0 1012.3
10 22.06 штиль 0 н/о н/о +24.8 +23.7 94 +34 +34 очень
душно
1015.3 1012.6
11 22.06 штиль 0
{1}
н/о н/о +26.9 +24.9 89 +39 +39 очень
душно
1016.1 1013.4
12 22.06 штиль 0
{2}
н/о н/о +28.3 +24.3 79 +40 +40 очень
душно
1016.2 1013.5
13 22.06 В 2
{4}
н/о н/о +30.0 +23.6 69 +41 +41 опасность
перегрева
1016.0 1013.3
14 22.06 В 1
{5}
н/о н/о +30.9 +23.8 66 +42 +42 опасность
перегрева
1015.6 1013.0
15 22.06 В 2
{5}
н/о н/о +30.1 +23.1 66 +40 +40 очень
душно
1015.4 1012.8
16 22.06 Ю 1
{6}
н/о н/о +25.3 +22.3 83 +33 +33 очень
душно
1015.3 1012.6 0.6
17 22.06 В 2
{5}
н/о н/о +30.1 +23.3 67 +41 +41 опасность
перегрева
1014.3 1011.7
18 22.06 В 2
{5}
н/о н/о +30.2 +23.5 67 +41 +41 опасность
перегрева
1013.8 1011.2
19 22.06 В 3
{6}
н/о н/о +29.5 +23.5 70 +40 +40 очень
душно
1014.0 1011.3
20 22.06 В 2
{5}
н/о н/о +28.8 +23.0 71 +39 +39 очень
душно
1014.2 1011.5
21 22.06 штиль 0
{4}
н/о н/о +24.4 +22.6 90 +32 +32 очень
душно
1014.6 1011.9 0.4
22 22.06 В 1
{4}
н/о н/о +24.1 +22.3 90 +31 +31 очень
душно
1015.3 1012.6 0.8
23 22.06 штиль 0
{3}
н/о н/о +23.8 +22.5 92 +31 +31 очень
душно
1015.8 1013.1 2
00 23.06 В 1
{4}
н/о н/о +24.6 +23.3 92 +33 +33 очень
душно
1016.5 1013.8 0.2
01 23.06 штиль 0
{4}
н/о н/о +23.3 +22.0 92 +32 +32 очень
душно
1016.3 1013.6 0.8
02 23.06 штиль 0 н/о н/о +23.4 +22.3 94 +32 +32 очень
душно
1016.6 1013.9
03 23.06 В 1
{3}
н/о н/о +23.7 +22.5 93 +31 +31 очень
душно
1016.8 1014.1 2
04 23.06 штиль 0
{3}
н/о н/о +23.4 +22.2 93 +32 +32 очень
душно
1016.2 1013.5 1
05 23.06 штиль 0 н/о н/о +23.4 +22.4 94 +32 +32 очень
душно
1015.3 1012.6
06 23.06 штиль 0 н/о н/о +23.4 +22.4 94 +32 +32 очень
душно
1014.6 1011.9
07 23.06 штиль 0 н/о н/о +23.5 +22.5 94 +31 +31 очень
душно
1014.4 1011.7
08 23.06 штиль 0 н/о н/о +23.3 +22.4 95 +32 +32 очень
душно
1014.5 1011.8
09 23.06 штиль 0 н/о н/о +23.1 +22.2 95 +32 +32 очень
душно
1014.9 1012.2
10 23.06 штиль 0 н/о н/о +23.5 +22.6 95 +31 +31 очень
душно
1015.0 1012.3
11 23.06 штиль 0 н/о н/о +24.3 +23.4 95 +33 +33 очень
душно
1015.5 1012.8
12 23.06 штиль 0
{1}
н/о н/о +26.1 +24.6 91 +37 +37 очень
душно
1015.9 1013.2
13 23.06 штиль 0
{2}
н/о н/о +27.1 +24.0 83 +37 +37 очень
душно
1015.7 1013.0
14 23.06 В 1
{3}
н/о н/о +26.9 +23.7 83 +37 +37 очень
душно
1015.8 1013.1
15 23.06 В 1
{4}
н/о н/о +27.6 +22.2 72 +36 +36 очень
душно
1015.2 1012.5
16 23.06 штиль 0
{4}
н/о н/о +28.9 +21.8 66 +37 +37 очень
душно
1014.2 1011.5
17 23.06 В 1
{4}
н/о н/о +30.0 +20.8 58 +37 +37 очень
душно
1013.1 1010.5
18 23.06 В 1
{4}
н/о н/о +29.5 +21.9 64 +38 +38 очень
душно
1012.7 1010.1
19 23.06 СВ 1
{4}
н/о н/о +28.7 +22.9 71 +38 +38 очень
душно
1012.7 1010.0
20 23.06 В 1
{4}
н/о н/о +28.5 +22.8 71 +38 +38 очень
душно
1012.7 1010.0
21 23.06 В 1
{3}
н/о н/о +27.6 +22.8 75 +37 +37 очень
душно
1012.7 1010.0
22 23.06 штиль 0
{3}
н/о н/о +27.1 +22.8 77 +36 +36 очень
душно
1013.2 1010.5
23 23.06 штиль 0
{3}
н/о н/о +25.4 +22.9 86 +34 +34 очень
душно
1013.6 1010.9 0.2
00 24.06 штиль 0 н/о н/о +25.0 +23.1 89 +33 +33 очень
душно
1014.1 1011.4
01 24.06 штиль 0 н/о н/о +23.7 +22.4 92 +31 +31 очень
душно
1014.3 1011.6 4
02 24.06 штиль 0
{2}
н/о н/о +23.3 +22.3 94 +32 +32 очень
душно
1014.6 1011.9 11
03 24.06 штиль 0
{1}
н/о н/о +23.3 +22.3 94 +32 +32 очень
душно
1014.3 1011.6
04 24.06 штиль 0
{1}
н/о н/о +23.1 +22.2 95 +32 +32 очень
душно
1013.5 1010.8
05 24.06 штиль 0
{1}
н/о н/о +22.9 +22.0 95 +31 +31 очень
душно
1012.6 1009.9
06 24.06 штиль 0 н/о н/о +22.8 +21.9 95 +31 +31 очень
душно
1012.2 1009.5
07 24.06 штиль 0 н/о н/о +22.5 +21.7 95 +30 +30 очень
душно
1012.1 1009.4
08 24.06 штиль 0 н/о н/о +22.4 +21.6 95 +30 +30 очень
душно
1012.0 1009.3
09 24.06 штиль 0 н/о н/о +22.3 +21.5 95 +29 +29 очень
душно
1012.4 1009.7
10 24.06 штиль 0 н/о н/о +23.2 +22.4 95 +32 +32 очень
душно
1012.6 1009.9
11 24.06 штиль 0 н/о н/о +24.7 +23.7 94 +34 +34 очень
душно
1013.3 1010.6
12 24.06 штиль 0
{1}
н/о н/о +28.2 +24.6 81 +40 +40 очень
душно
1013.5 1010.8
13 24.06 штиль 0
{3}
н/о н/о +29.2 +23.2 70 +39 +39 очень
душно
1013.4 1010.7
14 24.06 В 2
{3}
н/о н/о +29.6 +22.8 67 +39 +39 очень
душно
1012.9 1010.3
15 24.06 В 1
{4}
н/о н/о +29.8 +22.7 66 +39 +39 очень
душно
1012.0 1009.4
16 24.06 В 2
{4}
н/о н/о +29.7 +23.8 71 +41 +41 опасность
перегрева
1011.4 1008.8
17 24.06 СВ 2
{5}
н/о н/о +29.5 +23.3 69 +40 +40 очень
душно
1010.6 1008.0
18 24.06 СВ 2
{4}
н/о н/о +28.9 +23.6 73 +39 +39 очень
душно
1010.1 1007.5
19 24.06 СВ 2
{4}
н/о н/о +29.0 +23.5 72 +39 +39 очень
душно
1009.9 1007.3
20 24.06 В 2
{4}
н/о н/о +28.6 +23.1 72 +38 +38 очень
душно
1009.9 1007.3
21 24.06 В 1
{4}
н/о н/о +27.7 +23.0 76 +37 +37 очень
душно
1010.5 1007.8
22 24.06 В 1
{4}
н/о н/о +27.4 +22.7 76 +36 +36 очень
душно
1010.7 1008.0
23 24.06 В 1
{4}
н/о н/о +27.3 +22.9 77 +36 +36 очень
душно
1011.1 1008.4
00 25.06 В 1
{3}
н/о н/о +27.3 +22.9 77 +36 +36 очень
душно
1011.8 1009.1
01 25.06 В 1
{4}
н/о н/о +27.2 +22.7 76 +36 +36 очень
душно
1012.3 1009.6
02 25.06 В 2
{4}
н/о н/о +27.3 +22.8 76 +36 +36 очень
душно
1012.4 1009.7
03 25.06 В 1
{4}
н/о н/о +27.2 +23.2 79 +37 +37 очень
душно
1012.1 1009.4
04 25.06 штиль 0
{3}
н/о н/о +26.8 +22.8 79 +36 +36 очень
душно
1011.6 1008.9
05 25.06 штиль 0
{3}
н/о н/о +25.9 +22.5 82 +34 +34 очень
душно
1011.1 1008.4
06 25.06 штиль 0
{2}
н/о н/о +24.4 +22.5 89 +32 +32 очень
душно
1010.9 1008.2
07 25.06 штиль 0 н/о н/о +23.8 +22.4 92 +31 +31 очень
душно
1010.5 1007.8
08 25.06 штиль 0 н/о н/о +23.5 +22.3 93 +31 +31 очень
душно
1010.8 1008.1
09 25.06 штиль 0 н/о н/о +23.3 +22.2 94 +32 +32 очень
душно
1011.1 1008.4
10 25.06 штиль 0 н/о н/о +23.8 +22.7 94 +31 +31 очень
душно
1011.6 1008.9
11 25.06 штиль 0
{1}
н/о н/о +27.4 +24.9 86 +39 +39 очень
душно
1012.0 1009.3
12 25.06 штиль 0
{2}
н/о н/о +28.9 +24.1 75 +40 +40 очень
душно
1012.5 1009.8
13 25.06 В 2
{4}
н/о н/о +29.3 +23.4 71 +40 +40 очень
душно
1012.6 1010.0
14 25.06 В 2
{5}
н/о н/о +29.9 +23.3 68 +40 +40 очень
душно
1012.4 1009.8
15 25.06 В 3
{5}
н/о н/о +30.2 +23.2 66 +40 +40 очень
душно
1011.9 1009.3
16 25.06 В 2
{5}
н/о н/о +30.0 +23.9 70 +41 +41 опасность
перегрева
1011.0 1008.4
17 25.06 В 2
{5}
н/о н/о +29.5 +23.1 69 +40 +40 очень
душно
1010.2 1007.6
18 25.06 В 2
{5}
н/о н/о +29.4 +23.2 69 +39 +39 очень
душно
1009.5 1006.9
19 25.06 В 2
{4}
н/о н/о +28.9 +23.0 71 +39 +39 очень
душно
1009.4 1006.8
20 25.06 В 2
{4}
н/о н/о +28.7 +22.9 71 +38 +38 очень
душно
1009.7 1007.1
21 25.06 В 1
{5}
н/о н/о +28.0 +22.9 74 +37 +37 очень
душно
1010.2 1007.5
22 25.06 В 1
{4}
н/о н/о +27.5 +22.9 76 +37 +37 очень
душно
1010.9 1008.2
23 25.06 штиль 0
{3}
н/о н/о +27.3 +22.8 76 +36 +36 очень
душно
1011.8 1009.1
00 26.06 В 1
{3}
н/о н/о +27.2 +22.6 76 +36 +36 очень
душно
1012.3 1009.6
01 26.06 штиль 0
{3}
н/о н/о +26.8 +22.7 78 +35 +35 очень
душно
1012.6 1009.9
02 26.06 В 1
{3}
н/о н/о +27.1 +22.4 76 +36 +36 очень
душно
1012.7 1010.0
03 26.06 штиль 0
{3}
н/о н/о +25.1 +22.4 85 +33 +33 очень
душно
1012.8 1010.1
04 26.06 штиль 0 н/о н/о +24.4 +22.6 90 +32 +32 очень
душно
1012.5 1009.8
05 26.06 штиль 0 н/о н/о +23.8 +22.3 91 +31 +31 очень
душно
1011.8 1009.1
06 26.06 штиль 0 н/о н/о +23.5 +22.2 92 +30 +30 очень
душно
1011.6 1008.9
07 26.06 штиль 0 н/о н/о +23.1 +21.9 93 +31 +31 очень
душно
1011.3 1008.6
08 26.06 штиль 0 н/о н/о +23.0 +21.8 93 +31 +31 очень
душно
1011.5 1008.8
09 26.06 штиль 0 н/о н/о +22.8 +21.8 94 +31 +31 очень
душно
1012.0 1009.3
10 26.06 штиль 0 н/о н/о +23.7 +22.6 94 +31 +31 очень
душно
1012.4 1009.7
11 26.06 штиль 0
{1}
н/о н/о +25.8 +24.0 90 +36 +36 очень
душно
1012.8 1010.1
12 26.06 штиль 0
{1}
н/о н/о +28.5 +24.2 78 +40 +40 очень
душно
1012.8 1010.1
13 26.06 штиль 0
{3}
н/о н/о +29.9 +23.4 68 +40 +40 очень
душно
1013.0 1010.4
14 26.06 В 1
{3}
н/о н/о +29.7 +23.7 70 +41 +41 опасность
перегрева
1013.1 1010.5
15 26.06 В 1
{4}
н/о н/о +30.0 +23.5 68 +41 +41 опасность
перегрева
1012.6 1010.0
16 26.06 В 1
{4}
н/о н/о +30.1 +24.3 71 +42 +42 опасность
перегрева
1011.9 1009.3
17 26.06 СВ 2
{4}
н/о н/о +29.9 +24.0 71 +41 +41 опасность
перегрева
1011.0 1008.4
18 26.06 В 2
{5}
н/о н/о +29.7 +23.9 71 +41 +41 опасность
перегрева
1010.4 1007.8
19 26.06 СВ 2
{4}
н/о н/о +29.1 +23.9 74 +40 +40 очень
душно
1010.5 1007.9
20 26.06 СВ 2
{4}
н/о н/о +28.5 +23.7 75 +39 +39 очень
душно
1010.6 1007.9
21 26.06 В 2
{4}
н/о н/о +28.1 +23.7 77 +39 +39 очень
душно
1011.2 1008.5
22 26.06 В 2
{4}
н/о н/о +27.9 +23.2 76 +38 +38 очень
душно
1011.6 1008.9
23 26.06 В 2
{4}
н/о н/о +27.8 +23.6 78 +38 +38 очень
душно
1012.3 1009.6

 

Местоположение метеостанции Салинополис (Пара, Бразилия): широта -0.62 долгота -47.35 высота над уровнем моря 23 м.

В архиве по умолчанию представлена погода в Салинополисе за последнюю неделю. Архивные данные за месяц целиком и за предыдущие месяцы, начиная с января 2011 года, Вы можете получить, выбрав интересующий диапазон дат из раскрывающегося списка и нажав кнопку "Ввод!".


*Определитесь, кто Вы:
робот инопланетянин человек

Внимание! Время в таблицах - всемирное. Для получения местного времени необходимо прибавить поправку, которая равна -3 ч.

Смотрите также архив погоды в соседних городах и на ближайших метеорологических станциях:

Погода в Салинополисе (Пара, Бразилия) (3 км)
Погода в Тракуатеуа (Пара, Бразилия) (69 км)
Погода в Брагансе (Пара, Бразилия) (79 км)
Погода в Кастаньяле (Пара, Бразилия) (101 км)
Погода в Капитан-Посу (Пара, Бразилия) (128 км)
Погода в Сори (Пара, Бразилия) (132 км)
Погода в Сори (Пара, Бразилия) (134 км)
Погода в Белене (Пара, Бразилия) (149 км)
Погода в Белеме (Пара, Бразилия) (151 км)
Погода в Томе-Асу (Пара, Бразилия) (248 км)

Пояснения к столбцам:

Ветер - указаны скорость ветра в м/с - средняя за 10 мин, порывы в срок и между сроками (в фигурных скобках) и направление, откуда дует ветер: С - северный, СВ - северо-восточный, В - восточный, ЮВ - юго-восточный, Ю - южный, ЮЗ - юго-западный, З - западный, СЗ - северо-западный.
Видимость - горизонтальная дальность видимости в метрах или километрах. При видимости от 1 до 10 км при отсутствии осадков обычно наблюдается дымка, при ухудшении видимости до 1 км и менее - туман. В сухую погоду видимость может ухудшаться дымом, пылью или мглою.
Явления - указаны атмосферные явления, наблюдавшиеся в срок или в последний час перед сроком; фигурными скобками обозначены явления, наблюдавшиеся между сроками (за 1-3 часа до срока); квадратными скобками обозначены град или гололедные отложения с указанием их диаметра в мм.
Облачность - указаны через наклонную черту общая и нижняя облачность в баллах и высота нижней границы облаков в метрах; квадратными скобками обозначены формы облаков: Ci - перистые, Cs - перисто-слоистые, Cc - перисто-кучевые, Ac - высококучевые, As - высокослоистые, Sc - слоисто-кучевые, Ns - слоисто-дождевые, Cu - кучевые, Cb - кучево-дождевые. Подробнее классификацию облаков см. в Атласе облаков (PDF).
T - Температура воздуха - температура, измеренная на высоте 2 м над землей.
Td - Температура точки росы - температура, при понижении до которой содержащийся в воздухе водяной пар достигнет насыщения.
f - Относительная влажность воздуха - влажноcть воздуха, измеренная на высоте 2 м над землей.
Te - Эффективная температура - температура, которую ощущает одетый по сезону человек в тени. Характеристика душности погоды. При расчете учитывается влияние влажности воздуха и скорости ветра на теплоощущения человека.
Tes - Эффективная температура на солнце - температура, которую ощущает человек, с поправкой на солнечный нагрев. Характеристика знойности погоды. Зависит от высоты солнца над горизонтом, облачности и скорости ветра. Ночью, в пасмурную погоду, а также при ветре 12 м/с и более поправка равна нулю.
P - Атмосферное давление - приведенное к уровню моря атмосферное давление.
Po - Атмосферное давление - измеренное на уровне метеостанции атмосферное давление.
Tmin - Минимальная температура - минимум температуры воздуха на высоте 2 м над землей.
Tmax - Максимальная температура - максимум температуры воздуха на высоте 2 м над землей.
R - Количество осадков - Количество выпавших осадков за период времени, мм. При наведении курсора мыши на число - период времени, за который выпало указанное количество осадков.
R24 - Количество осадков - Количество выпавших осадков за 24 часа, мм.
S - Снежный покров - Высота снежного покрова, см. При наведении курсора мыши на число - состояние снежного покрова и степень покрытия местности в баллах.